{"data":{"norad_id":58741,"intl_designator":"2024-005P","name":"STARLINK-31148","alt_names":[],"object_type":"PAYLOAD","status":"ACTIVE","operator":null,"country":"US","launch_date":"2024-01-07","launch_site_code":"AFETR","launch_vehicle":null,"mission":null,"orbit_class":"UNKNOWN","rcs_meters":null,"size_class":null,"mass_kg":null,"dimensions":null,"purposes":["comms"],"wikipedia_slug":null,"has_3d_model":false,"image_url":null,"decayed_at":null,"tle_current":{"epoch":"2026-09-20T12:30:07.865568Z","epoch_age_seconds":147898,"freshness":"FRESH","line1":"1 58741U 24005P   26263.52092437 -.00000428  00000+0 -60389-5 0  9993","line2":"2 58741  42.9954 199.1976 0000337  40.5944 319.4933 15.27574738150244","mean_motion":15.27574738,"eccentricity":3.37e-5,"inclination_deg":42.9954,"raan_deg":199.1976,"arg_perigee_deg":40.5944,"mean_anomaly_deg":319.4933,"bstar":-6.0389e-6,"rev_number":15024,"period_min":94.267073432056,"perigee_km":482.83362990345,"apogee_km":483.2960749083,"semimajor_km":6861.2018524059,"source":"CELESTRAK","updated_at":"2026-09-21T09:00:33.953922Z"}}}